N0DZQ Weather Reports


time (UTC)temp
C
wind
direction
speed
KPH
gust
KPH
rain 1hr
cm
rain 24hr
cm
rain mn
cm
humidity
%
barometer
mb
20260503014057 14 0 0.0 1.6 0.00 0.00 0.00 53 1011.1
20260503013557 14 0 0.0 0.0 0.00 0.00 0.00 52 1011.1
20260503013106 15 0 0.0 0.0 0.00 0.00 0.00 50 1011.0
20260503012600 15 0 0.0 0.0 0.00 0.00 0.00 50 1011.0
20260503012056 15 0 0.0 0.0 0.00 0.00 0.00 49 1011.0
20260503011605 15 0 0.0 0.0 0.00 0.00 0.00 50 1011.0
20260503011057 15 0 0.0 0.0 0.00 0.00 0.00 50 1011.0
20260503010556 15 0 0.0 0.0 0.00 0.00 0.00 49 1011.1
20260503010100 16 0 0.0 3.2 0.00 0.00 0.00 48 1011.1
20260503005558 16 0 0.0 6.4 0.00 0.00 0.00 47 1011.1
20260503005056 16 0 0.0 6.4 0.00 0.00 0.00 47 1011.0
20260503004601 16 0 1.6 6.4 0.00 0.00 0.00 48 1011.1
20260503004057 16 319 0.0 6.4 0.00 0.00 0.00 44 1011.1
20260503003557 16 0 0.0 4.8 0.00 0.00 0.00 45 1011.2
20260503003109 16 0 0.0 4.8 0.00 0.00 0.00 46 1011.2
20260503002601 16 297 0.0 4.8 0.00 0.00 0.00 43 1011.2
20260503002057 16 0 1.6 8.0 0.00 0.00 0.00 43 1011.2
20260503001609 16 0 1.6 8.0 0.00 0.00 0.00 44 1011.3
20260503001100 16 290 0.0 4.8 0.00 0.00 0.00 44 1011.3
20260503000556 16 101 0.0 0.0 0.00 0.00 0.00 46 1011.4
20260503000112 16 0 0.0 1.6 0.00 0.00 0.00 44 1011.4
20260502235600 16 0 0.0 3.2 0.00 0.00 0.00 42 1011.5
20260502235100 17 0 0.0 3.2 0.00 0.00 0.00 43 1011.5
20260502234603 17 0 0.0 1.6 0.00 0.00 0.00 44 1011.5
20260502234100 17 0 0.0 1.6 0.00 0.00 0.00 40 1011.6
20260502233601 17 0 0.0 6.4 0.00 0.00 0.00 41 1011.6
20260502233102 17 0 0.0 6.4 0.00 0.00 0.00 42 1011.6
20260502232557 17 285 1.6 4.8 0.00 0.00 0.00 44 1011.9
20260502232057 17 0 0.0 4.8 0.00 0.00 0.00 42 1012.0
20260502231621 17 336 0.0 4.8 0.00 0.00 0.00 40 1012.0
20260502231057 17 289 0.0 6.4 0.00 0.00 0.00 43 1012.1
20260502230601 16 233 3.2 6.4 0.00 0.00 0.00 41 1012.3
20260502230121 17 160 0.0 6.4 0.00 0.00 0.00 43 1012.2
20260502225600 17 276 0.0 4.8 0.00 0.00 0.00 40 1012.3
20260502225100 17 0 1.6 4.8 0.00 0.00 0.00 39 1012.2
20260502224610 17 0 0.0 6.4 0.00 0.00 0.00 40 1012.3
20260502224101 17 0 1.6 11.3 0.00 0.00 0.00 41 1012.2
20260502223601 17 0 0.0 11.3 0.00 0.00 0.00 40 1012.3
20260502223111 17 312 1.6 4.8 0.00 0.00 0.00 42 1012.3
20260502222558 17 208 0.0 4.8 0.00 0.00 0.00 42 1012.4
20260502222101 17 13 0.0 4.8 0.00 0.00 0.00 39 1012.4
20260502221558 17 240 1.6 4.8 0.00 0.00 0.00 38 1012.3
20260502221100 17 0 1.6 8.0 0.00 0.00 0.00 41 1012.4
20260502220601 17 122 1.6 8.0 0.00 0.00 0.00 38 1012.5
20260502220108 17 309 3.2 8.0 0.00 0.00 0.00 38 1012.5
20260502215601 17 336 0.0 4.8 0.00 0.00 0.00 39 1012.7
20260502215058 17 0 0.0 4.8 0.00 0.00 0.00 38 1012.7
20260502214606 17 0 0.0 4.8 0.00 0.00 0.00 40 1012.9
20260502214108 17 313 1.6 8.0 0.00 0.00 0.00 39 1013.0
20260502213601 17 63 0.0 9.7 0.00 0.00 0.00 39 1013.1
20260502213100 17 217 3.2 11.3 0.00 0.00 0.00 39 1013.1
20260502212601 17 266 4.8 11.3 0.00 0.00 0.00 38 1013.2
20260502212101 18 309 4.8 11.3 0.00 0.00 0.00 39 1013.3
20260502211559 18 218 3.2 11.3 0.00 0.00 0.00 36 1013.3
20260502211100 17 287 0.0 16.1 0.00 0.00 0.00 39 1013.4
20260502210604 17 284 3.2 16.1 0.00 0.00 0.00 42 1013.4
20260502210100 17 304 4.8 16.1 0.00 0.00 0.00 36 1013.5
20260502205600 17 77 6.4 12.9 0.00 0.00 0.00 36 1013.7
20260502205057 17 288 3.2 14.5 0.00 0.00 0.00 35 1013.8
20260502204615 17 222 1.6 16.1 0.00 0.00 0.00 37 1013.8
20260502204057 17 0 4.8 16.1 0.00 0.00 0.00 35 1013.9
20260502203556 17 297 3.2 11.3 0.00 0.00 0.00 39 1014.0
20260502203100 16 5 3.2 14.5 0.00 0.00 0.00 37 1014.2
20260502202557 17 333 4.8 14.5 0.00 0.00 0.00 37 1014.3
20260502202057 17 291 3.2 8.0 0.00 0.00 0.00 39 1014.3
20260502201602 17 292 1.6 9.7 0.00 0.00 0.00 36 1014.4
20260502201057 17 0 3.2 9.7 0.00 0.00 0.00 38 1014.5
20260502200601 17 271 3.2 9.7 0.00 0.00 0.00 38 1014.6
20260502200059 17 125 3.2 8.0 0.00 0.00 0.00 39 1014.8
20260502195559 17 325 1.6 14.5 0.00 0.00 0.00 40 1014.9
20260502195100 16 0 3.2 14.5 0.00 0.00 0.00 36 1014.9
20260502194559 17 57 1.6 12.9 0.00 0.00 0.00 34 1014.9
20260502194100 17 236 1.6 9.7 0.00 0.00 0.00 38 1015.1
20260502193600 16 349 3.2 9.7 0.00 0.00 0.00 38 1015.1
20260502193100 16 347 1.6 9.7 0.00 0.00 0.00 37 1015.3
20260502192558 16 309 0.0 9.7 0.00 0.00 0.00 38 1015.2
20260502192058 16 245 3.2 9.7 0.00 0.00 0.00 39 1015.4
20260502191605 16 37 0.0 8.0 0.00 0.00 0.00 36 1015.5
20260502191100 16 212 1.6 17.7 0.00 0.00 0.00 37 1015.7
20260502190559 16 293 3.2 17.7 0.00 0.00 0.00 39 1015.7
20260502190100 16 311 4.8 17.7 0.00 0.00 0.00 39 1015.9
20260502185602 16 107 1.6 8.0 0.00 0.00 0.00 42 1016.0
20260502185057 16 118 1.6 9.7 0.00 0.00 0.00 38 1016.0
20260502184600 16 198 1.6 9.7 0.00 0.00 0.00 38 1016.1
20260502184057 16 333 1.6 9.7 0.00 0.00 0.00 39 1016.1
20260502183600 16 0 1.6 9.7 0.00 0.00 0.00 39 1016.1
20260502183059 16 299 1.6 12.9 0.00 0.00 0.00 42 1016.3
20260502182558 16 0 3.2 12.9 0.00 0.00 0.00 38 1016.3
20260502182057 16 112 1.6 11.3 0.00 0.00 0.00 43 1016.4
20260502181601 15 108 1.6 6.4 0.00 0.00 0.00 45 1016.3
20260502181100 15 309 1.6 11.3 0.00 0.00 0.00 40 1016.5
20260502180557 15 216 1.6 11.3 0.00 0.00 0.00 42 1016.7
20260502164100 13 319 1.6 12.9 0.00 0.00 0.00 40 1018.0
20260502163600 13 214 1.6 8.0 0.00 0.00 0.00 40 1018.1
20260502163103 13 5 1.6 8.0 0.00 0.00 0.00 40 1018.2
20260502162557 13 251 3.2 9.7 0.00 0.00 0.00 43 1018.2
20260502162058 13 295 1.6 9.7 0.00 0.00 0.00 43 1018.2
20260502161602 13 238 3.2 12.9 0.00 0.00 0.00 40 1018.3
20260502161056 13 297 3.2 12.9 0.00 0.00 0.00 40 1018.3
20260502160556 12 335 1.6 12.9 0.00 0.00 0.00 42 1018.4
20260502152058 12 294 1.6 12.9 0.00 0.00 0.00 47 1018.8
20260502151557 11 281 3.2 6.4 0.00 0.00 0.00 46 1018.8
20260502151059 11 288 3.2 12.9 0.00 0.00 0.00 45 1018.9
20260502150557 11 351 1.6 12.9 0.00 0.00 0.00 46 1019.0
20260502150113 11 271 3.2 11.3 0.00 0.00 0.00 44 1019.0
20260502140108 10 0 1.6 4.8 0.00 0.00 0.00 54 1019.3
20260502130559 7 0 0.0 6.4 0.00 0.00 0.00 66 1019.4
20260502130111 6 292 1.6 6.4 0.00 0.00 0.00 65 1019.3
20260502123556 5 0 0.0 1.6 0.00 0.00 0.00 74 1019.2
20260502123103 5 0 0.0 1.6 0.00 0.00 0.00 74 1019.2
20260502122601 4 0 0.0 4.8 0.00 0.00 0.00 75 1019.2
20260502122057 3 209 0.0 4.8 0.00 0.00 0.00 79 1019.2
20260502121600 2 0 0.0 1.6 0.00 0.00 0.00 81 1019.2
20260502121058 1 0 0.0 1.6 0.00 0.00 0.00 84 1019.2
20260502120559 1 0 0.0 0.0 0.00 0.00 0.00 86 1019.2
20260502115557 0 0 0.0 0.0 0.00 0.00 0.00 88 1019.1
20260502115101 0 0 0.0 0.0 0.00 0.00 0.00 88 1019.2
20260502114557 0 0 0.0 0.0 0.00 0.00 0.00 89 1019.2
20260502114100 0 0 0.0 0.0 0.00 0.00 0.00 90 1019.2
20260502113557 0 0 0.0 0.0 0.00 0.00 0.00 92 1019.1
20260502113100 0 0 0.0 0.0 0.00 0.00 0.00 92 1019.1
20260502112559 0 0 0.0 0.0 0.00 0.00 0.00 92 1019.1
20260502112101 0 0 0.0 0.0 0.00 0.00 0.00 93 1019.0
20260502111558 0 0 0.0 0.0 0.00 0.00 0.00 93 1019.0
20260502111100 0 0 0.0 0.0 0.00 0.00 0.00 93 1018.9
20260502110601 0 0 0.0 0.0 0.00 0.00 0.00 93 1019.0
20260502110100 0 0 0.0 0.0 0.00 0.00 0.00 93 1019.0
20260502105559 0 0 0.0 0.0 0.00 0.00 0.00 93 1019.1
20260502105057 0 0 0.0 0.0 0.00 0.00 0.00 93 1019.0
20260502104558 0 0 0.0 0.0 0.00 0.00 0.00 94 1019.1
20260502104057 0 0 0.0 0.0 0.00 0.00 0.00 94 1019.0
20260502103559 -1 0 0.0 0.0 0.00 0.00 0.00 94 1019.1
20260502103058 -1 0 0.0 0.0 0.00 0.00 0.00 93 1019.0
20260502102558 -1 0 0.0 0.0 0.00 0.00 0.00 93 1019.0
20260502102057 -1 0 0.0 0.0 0.00 0.00 0.00 93 1019.0
20260502101605 -1 0 0.0 0.0 0.00 0.00 0.00 92 1018.9
20260502101058 -1 0 0.0 0.0 0.00 0.00 0.00 92 1018.9
20260502100600 -1 0 0.0 0.0 0.00 0.00 0.00 92 1019.0
20260502091059 -1 0 0.0 0.0 0.00 0.00 0.00 90 1018.7
20260502090557 -1 0 0.0 0.0 0.00 0.00 0.00 90 1018.8
20260502080106 -1 0 0.0 0.0 0.00 0.00 0.00 88 1018.9
20260502071100 0 0 0.0 0.0 0.00 0.00 0.00 89 1019.2
20260502070602 0 0 0.0 0.0 0.00 0.00 0.00 89 1019.1
20260502070100 0 0 0.0 0.0 0.00 0.00 0.00 88 1019.3
20260502065601 0 0 0.0 0.0 0.00 0.00 0.00 88 1019.2
20260502065100 0 0 0.0 0.0 0.00 0.00 0.00 88 1019.3
20260502064600 0 0 0.0 0.0 0.00 0.00 0.00 87 1019.3
20260502064100 0 0 0.0 0.0 0.00 0.00 0.00 87 1019.3
20260502063558 0 0 0.0 0.0 0.00 0.00 0.00 87 1019.2
20260502063127 0 0 0.0 0.0 0.00 0.00 0.00 87 1019.3
20260502062557 0 0 0.0 0.0 0.00 0.00 0.00 87 1019.3
20260502062057 0 0 0.0 0.0 0.00 0.00 0.00 87 1019.3
20260502061559 0 0 0.0 0.0 0.00 0.00 0.00 87 1019.3
20260502061059 0 0 0.0 0.0 0.00 0.00 0.00 88 1019.3
20260502060557 0 0 0.0 0.0 0.00 0.00 0.00 88 1019.3
20260502055559 0 0 0.0 0.0 0.00 0.00 0.00 87 1019.4
20260502055059 0 0 0.0 0.0 0.00 0.00 0.00 88 1019.4
20260502054607 0 0 0.0 0.0 0.00 0.00 0.00 88 1019.4
20260502054057 0 0 0.0 0.0 0.00 0.00 0.00 88 1019.4
20260502053557 0 0 0.0 0.0 0.00 0.00 0.00 87 1019.4
20260502053105 0 0 0.0 0.0 0.00 0.00 0.00 87 1019.4
20260502052558 0 0 0.0 0.0 0.00 0.00 0.00 86 1019.4
20260502052101 0 0 0.0 0.0 0.00 0.00 0.00 85 1019.5
20260502051558 0 0 0.0 0.0 0.00 0.00 0.00 85 1019.4
20260502051058 0 0 0.0 0.0 0.00 0.00 0.00 85 1019.4
20260502050557 0 0 0.0 0.0 0.00 0.00 0.00 85 1019.3
20260502050057 0 0 0.0 0.0 0.00 0.00 0.00 85 1019.2
20260502045600 0 0 0.0 0.0 0.00 0.00 0.00 85 1019.3
20260502045058 0 0 0.0 0.0 0.00 0.00 0.00 85 1019.3
20260502044608 1 0 0.0 0.0 0.00 0.00 0.00 84 1019.3
20260502044059 1 0 0.0 0.0 0.00 0.00 0.00 83 1019.2
20260502043556 1 0 0.0 0.0 0.00 0.00 0.00 81 1019.3
20260502043101 1 0 0.0 0.0 0.00 0.00 0.00 81 1019.2
20260502042600 1 0 0.0 0.0 0.00 0.00 0.00 82 1019.3
20260502042056 1 0 0.0 0.0 0.00 0.00 0.00 83 1019.3
20260502041602 1 0 0.0 0.0 0.00 0.00 0.00 82 1019.4
20260502041057 1 0 0.0 0.0 0.00 0.00 0.00 81 1019.2
20260502040557 1 0 0.0 0.0 0.00 0.00 0.00 80 1019.4
20260502040104 2 0 0.0 0.0 0.00 0.00 0.00 80 1019.3
20260502035557 2 0 0.0 0.0 0.00 0.00 0.00 80 1019.4
20260502035058 2 0 0.0 0.0 0.00 0.00 0.00 80 1019.4
20260502034559 2 0 0.0 0.0 0.00 0.00 0.00 81 1019.5
20260502034057 2 0 0.0 0.0 0.00 0.00 0.00 80 1019.5
20260502033557 2 0 0.0 0.0 0.00 0.00 0.00 80 1019.4
20260502033102 2 0 0.0 0.0 0.00 0.00 0.00 81 1019.5
20260502032559 2 0 0.0 0.0 0.00 0.00 0.00 80 1019.5
20260502032057 2 0 0.0 0.0 0.00 0.00 0.00 78 1019.6
20260502031556 2 0 0.0 0.0 0.00 0.00 0.00 78 1019.4
20260502031057 3 0 0.0 0.0 0.00 0.00 0.00 77 1019.4
20260502030558 3 0 0.0 0.0 0.00 0.00 0.00 76 1019.4
20260502030101 3 0 0.0 0.0 0.00 0.00 0.00 76 1019.4
20260502025557 3 0 0.0 0.0 0.00 0.00 0.00 76 1019.3
20260502025101 3 0 0.0 0.0 0.00 0.00 0.00 74 1019.4
20260502024606 3 0 0.0 0.0 0.00 0.00 0.00 72 1019.4
20260502024058 3 0 0.0 0.0 0.00 0.00 0.00 72 1019.4
20260502023557 3 0 0.0 0.0 0.00 0.00 0.00 72 1019.5
20260502023100 3 0 0.0 0.0 0.00 0.00 0.00 70 1019.4
20260502022557 4 0 0.0 0.0 0.00 0.00 0.00 70 1019.4
20260502022057 4 0 0.0 0.0 0.00 0.00 0.00 66 1019.3
20260502021559 4 0 0.0 0.0 0.00 0.00 0.00 66 1019.3
20260502021057 4 0 0.0 0.0 0.00 0.00 0.00 68 1019.3
20260502020558 5 0 0.0 0.0 0.00 0.00 0.00 65 1019.2
20260502020058 5 0 0.0 0.0 0.00 0.00 0.00 66 1019.1
20260502015600 5 0 0.0 0.0 0.00 0.00 0.00 64 1019.1
20260502015058 5 0 0.0 0.0 0.00 0.00 0.00 62 1019.0
20260502014559 6 0 0.0 0.0 0.00 0.00 0.00 61 1018.9